FW5837 Weather Reports


time (UTC)temp
C
wind
direction
speed
KPH
gust
KPH
rain 1hr
cm
rain 24hr
cm
rain mn
cm
humidity
%
barometer
mb
20260510150053 12 217 11.3 29.0 0.00 1.57 0.03 76 1011.4
20260510145532 13 234 8.0 25.7 0.00 1.73 0.03 78 1011.3
20260510145031 13 246 8.0 27.4 0.00 1.73 0.03 78 1011.3
20260510144603 13 176 8.0 27.4 0.00 1.73 0.03 79 1011.2
20260510144033 14 164 11.3 27.4 0.00 1.73 0.03 75 1011.1
20260510143531 14 252 9.7 27.4 0.00 1.73 0.03 76 1011.2
20260510143056 13 229 9.7 24.1 0.00 1.73 0.03 77 1011.1
20260510142531 13 184 8.0 20.9 0.00 1.73 0.03 80 1011.2
20260510142031 13 207 8.0 17.7 0.00 1.73 0.03 81 1011.2
20260510141544 13 196 4.8 33.8 0.00 1.73 0.03 81 1011.2
20260510141035 12 216 6.4 33.8 0.00 1.73 0.03 78 1011.1
20260510140531 13 252 9.7 33.8 0.00 1.73 0.03 79 1010.9
20260510140047 12 209 6.4 24.1 0.00 1.73 0.03 85 1010.9
20260510135533 12 0 6.4 19.3 0.00 1.91 0.03 91 1011.0
20260510135032 12 272 4.8 19.3 0.00 1.91 0.03 95 1010.9
20260510134602 11 249 0.0 6.4 0.00 1.91 0.03 97 1011.0
20260510134031 11 82 1.6 6.4 0.00 1.91 0.03 98 1011.0
20260510133533 10 0 1.6 6.4 0.00 1.91 0.03 98 1011.0
20260510133043 10 238 1.6 6.4 0.00 1.91 0.03 98 1011.1
20260510132531 9 68 3.2 9.7 0.00 1.91 0.03 98 1011.1
20260510132032 9 62 3.2 9.7 0.00 1.91 0.03 98 1011.1
20260510131546 9 90 1.6 6.4 0.00 1.91 0.03 98 1011.1
20260510131034 8 59 1.6 11.3 0.00 1.91 0.03 98 1011.2
20260510130531 8 48 3.2 11.3 0.00 1.91 0.03 98 1011.2
20260510130044 8 73 4.8 9.7 0.00 1.91 0.03 98 1011.2
20260510125532 8 0 0.0 6.4 0.00 1.96 0.03 98 1011.2
20260510125032 9 0 0.0 8.0 0.00 1.96 0.03 98 1011.3
20260510124554 8 55 1.6 8.0 0.00 1.96 0.03 98 1011.0
20260510124032 8 51 3.2 14.5 0.00 1.96 0.03 98 1011.0
20260510123532 8 34 3.2 14.5 0.00 1.96 0.03 98 1011.0
20260510123046 8 40 6.4 14.5 0.00 1.96 0.03 98 1011.0
20260510122532 8 68 4.8 14.5 0.00 1.96 0.03 98 1010.9
20260510122031 8 108 3.2 12.9 0.00 1.96 0.03 98 1010.9
20260510121545 7 73 3.2 16.1 0.00 1.96 0.03 98 1010.9
20260510121033 7 69 6.4 16.1 0.00 1.96 0.03 98 1010.9
20260510120532 7 89 6.4 11.3 0.00 1.96 0.03 98 1010.9
20260510120046 7 55 4.8 11.3 0.00 1.96 0.03 98 1010.9
20260510115531 7 93 6.4 14.5 0.00 1.96 0.03 98 1011.0
20260510115031 7 80 4.8 14.5 0.00 1.96 0.03 98 1011.0
20260510114543 7 78 4.8 11.3 0.00 1.96 0.03 98 1010.8
20260510114031 7 80 3.2 11.3 0.00 1.96 0.03 98 1010.9
20260510113532 7 64 1.6 11.3 0.00 1.96 0.03 98 1011.0
20260510113043 7 91 3.2 9.7 0.00 1.96 0.03 98 1010.9
20260510112531 7 56 3.2 8.0 0.00 1.96 0.03 98 1010.9
20260510112033 7 57 3.2 12.9 0.00 1.96 0.03 98 1010.9
20260510111555 7 70 4.8 12.9 0.00 1.96 0.03 98 1010.9
20260510111032 7 71 3.2 12.9 0.03 1.96 0.03 98 1010.9
20260510110530 7 77 3.2 11.3 0.03 1.96 0.03 98 1010.7
20260510110045 7 63 3.2 11.3 0.03 1.96 0.03 98 1010.7
20260510105530 7 108 3.2 11.3 0.03 1.96 0.03 98 1010.5
20260510105028 7 81 3.2 9.7 0.03 1.96 0.03 98 1010.3
20260510104604 7 64 4.8 9.7 0.03 1.96 0.03 98 1010.1
20260510104029 7 65 3.2 9.7 0.03 1.96 0.03 98 1010.1
20260510103529 7 21 4.8 11.3 0.03 1.96 0.03 98 1010.0
20260510103044 7 153 4.8 14.5 0.03 1.96 0.03 98 1009.9
20260510102529 7 88 8.0 14.5 0.03 1.96 0.03 98 1009.9
20260510102031 7 92 3.2 16.1 0.03 1.96 0.03 98 1010.0
20260510101546 7 103 8.0 16.1 0.03 1.96 0.03 98 1009.9
20260510101029 7 93 3.2 16.1 0.00 1.93 0.00 98 1009.8
20260510100532 7 126 3.2 17.7 0.00 1.93 0.00 98 1009.7
20260510100043 7 64 8.0 17.7 0.00 1.93 0.00 97 1009.6
20260510095529 7 178 4.8 16.1 0.00 1.93 0.00 97 1009.5
20260510095029 7 138 8.0 16.1 0.00 1.93 0.00 97 1009.3
20260510094546 7 130 4.8 14.5 0.00 1.93 0.00 98 1009.2
20260510094029 7 132 4.8 11.3 0.00 1.93 0.00 98 1009.2
20260510093530 7 182 3.2 9.7 0.00 1.93 0.00 98 1009.2
20260510093044 7 0 1.6 6.4 0.00 1.93 0.00 98 1009.2
20260510092529 7 63 1.6 4.8 0.00 1.93 0.00 98 1009.1
20260510092032 7 0 0.0 8.0 0.00 1.93 0.00 98 1009.2
20260510091543 7 0 1.6 8.0 0.00 1.93 0.00 98 1009.2
20260510091028 7 175 0.0 6.4 0.00 1.93 0.00 98 1009.3
20260510090530 7 0 0.0 4.8 0.00 1.93 0.00 98 1009.2
20260510090056 7 106 1.6 8.0 0.00 1.93 0.00 98 1009.1
20260510085531 7 56 3.2 8.0 0.00 1.93 0.00 97 1009.0
20260510085029 7 62 1.6 4.8 0.00 1.93 0.00 97 1009.1
20260510084542 7 0 0.0 9.7 0.00 1.93 0.00 97 1009.1
20260510084029 7 178 3.2 9.7 0.00 1.93 0.00 98 1009.0
20260510083532 7 194 0.0 16.1 0.00 1.93 0.00 98 1008.9
20260510083039 7 219 4.8 16.1 0.00 1.93 0.00 98 1009.3
20260510082530 7 255 4.8 24.1 0.00 1.93 0.00 98 1009.3
20260510082029 7 217 8.0 24.1 0.00 1.93 0.00 98 1009.4
20260510081558 7 259 8.0 19.3 0.00 1.93 0.00 98 1009.5
20260510081029 7 252 6.4 16.1 0.00 1.93 0.00 98 1009.5
20260510080532 7 229 8.0 16.1 0.00 1.93 0.00 98 1009.4
20260510080046 7 190 4.8 19.3 0.00 1.93 0.00 98 1009.6
20260510075531 7 205 8.0 19.3 0.00 1.93 0.00 98 1009.6
20260510075030 7 236 4.8 19.3 0.00 1.93 0.00 98 1009.6
20260510074543 7 225 4.8 19.3 0.00 1.93 0.00 98 1009.5
20260510074032 7 226 4.8 17.7 0.00 1.93 0.00 98 1009.5
20260510073534 7 242 9.7 29.0 0.00 1.93 0.00 98 1009.7
20260510073044 7 209 4.8 29.0 0.00 1.93 0.00 98 1009.6
20260510072529 7 176 6.4 14.5 0.00 1.93 0.00 98 1009.6
20260510072029 7 150 4.8 22.5 0.00 1.93 0.00 98 1009.6
20260510071552 7 215 6.4 22.5 0.00 1.93 0.00 98 1009.6
20260510071029 6 223 3.2 12.9 0.00 1.93 0.00 97 1009.5
20260510070532 6 136 1.6 8.0 0.00 1.93 0.00 98 1009.4
20260510070043 6 186 0.0 6.4 0.00 1.93 0.00 98 1009.4
20260510065532 6 0 0.0 6.4 0.00 1.93 0.00 98 1009.4
20260510065030 6 76 0.0 6.4 0.00 1.93 0.00 98 1009.4
20260510064546 6 0 1.6 8.0 0.00 1.93 0.00 98 1009.2
20260510064029 6 0 1.6 9.7 0.00 1.93 0.00 98 1009.3
20260510063529 6 148 3.2 9.7 0.00 1.93 0.00 97 1009.4
20260510063045 6 131 1.6 11.3 0.00 1.93 0.00 98 1009.4
20260510062531 6 95 4.8 11.3 0.00 1.93 0.00 98 1009.4
20260510062031 6 41 1.6 9.7 0.00 1.93 0.00 98 1009.5
20260510061543 6 121 3.2 16.1 0.00 1.93 0.00 97 1009.5
20260510061032 6 142 3.2 16.1 0.00 1.93 0.00 97 1009.6
20260510060532 6 153 6.4 16.1 0.00 1.93 0.00 98 1009.6
20260510060053 6 102 8.0 14.5 0.00 1.93 0.00 97 1009.6
20260510055531 6 104 6.4 17.7 0.00 1.93 0.00 97 1009.5
20260510055031 6 82 8.0 17.7 0.00 1.93 0.00 97 1009.5
20260510054547 6 120 4.8 14.5 0.00 1.93 0.00 97 1009.5
20260510054031 6 96 4.8 14.5 0.00 1.93 0.00 97 1009.4
20260510053529 6 77 6.4 14.5 0.00 1.93 0.00 97 1009.5
20260510053052 6 69 4.8 14.5 0.00 1.93 0.00 97 1009.5
20260510052529 6 59 4.8 17.7 0.00 1.93 0.00 97 1009.6
20260510052032 6 62 6.4 17.7 0.00 1.93 0.00 97 1009.5
20260510051611 6 111 6.4 17.7 0.00 1.93 0.00 97 1009.7
20260510051031 6 119 8.0 17.7 0.00 1.93 0.00 97 1009.6
20260510050528 6 93 9.7 17.7 0.00 1.93 0.00 97 1009.6
20260510050044 6 90 3.2 17.7 0.00 1.93 0.00 97 1009.6
20260510045531 6 128 6.4 17.7 0.00 1.93 0.00 97 1009.7
20260510045029 6 109 6.4 14.5 0.00 1.93 0.00 97 1009.8
20260510044546 6 129 4.8 12.9 0.00 1.93 0.00 97 1009.8
20260510044035 6 180 3.2 14.5 0.00 1.93 0.00 97 1009.7
20260510043531 6 133 3.2 16.1 0.00 1.93 0.00 97 1009.7
20260510043120 6 150 6.4 16.1 0.00 1.93 0.00 97 1009.7
20260510042531 6 173 8.0 16.1 0.00 1.93 0.00 97 1009.8
20260510042030 6 111 4.8 16.1 0.00 1.93 0.00 97 1009.8
20260510041551 6 224 4.8 16.1 0.00 1.93 0.00 97 1009.8
20260510041031 6 136 4.8 19.3 0.00 1.93 0.00 97 1009.7
20260510040531 6 119 6.4 19.3 0.00 1.93 0.00 97 1009.7
20260510040051 6 134 6.4 19.3 0.00 1.93 0.00 97 1009.7
20260510035532 6 169 3.2 16.1 0.00 1.93 1.93 97 1009.8
20260510035032 6 130 6.4 16.1 0.00 1.93 1.93 97 1009.9
20260510034543 6 229 6.4 16.1 0.00 1.93 1.93 97 1010.0
20260510034028 6 211 4.8 14.5 0.03 1.93 1.93 97 1010.0
20260510033530 6 115 4.8 12.9 0.03 1.93 1.93 97 1009.9
20260510033050 6 132 3.2 14.5 0.03 1.93 1.93 97 1009.9
20260510032530 6 141 4.8 16.1 0.03 1.93 1.93 97 1010.0
20260510032028 6 144 6.4 16.1 0.03 1.93 1.93 97 1010.0
20260510031613 6 145 3.2 11.3 0.03 1.93 1.93 97 1010.0
20260510031032 6 178 3.2 11.3 0.03 1.93 1.93 97 1009.8
20260510030531 6 0 3.2 11.3 0.03 1.93 1.93 97 1009.9
20260510030045 6 172 3.2 14.5 0.03 1.93 1.93 97 1009.9
20260510025532 6 187 3.2 14.5 0.03 1.93 1.93 97 1009.9
20260510025034 6 200 4.8 14.5 0.03 1.93 1.93 97 1009.9
20260510024545 6 133 1.6 14.5 0.03 1.93 1.93 97 1009.8
20260510024031 6 0 4.8 14.5 0.00 1.91 1.91 97 1009.9
20260510023531 6 116 4.8 12.9 0.00 1.91 1.91 97 1010.0
20260510023053 6 132 3.2 12.9 0.00 1.91 1.91 97 1009.9
20260510022529 6 101 3.2 11.3 0.00 1.91 1.91 97 1009.8
20260510022031 6 134 3.2 12.9 0.00 1.91 1.91 97 1010.0
20260510021547 6 0 4.8 12.9 0.00 1.91 1.91 97 1010.0
20260510021030 6 155 4.8 16.1 0.00 1.91 1.91 97 1010.1
20260510020530 6 188 4.8 16.1 0.00 1.91 1.91 97 1010.2
20260510020049 6 166 6.4 16.1 0.00 1.91 1.91 97 1010.1
20260510015528 6 141 4.8 16.1 0.00 1.91 1.91 97 1010.3
20260510015028 6 122 8.0 16.1 0.00 1.91 1.91 97 1010.3
20260510014547 6 119 4.8 16.1 0.00 1.91 1.91 97 1010.2
20260510014031 6 163 1.6 11.3 0.00 1.91 1.91 97 1010.1
20260510013530 6 80 3.2 9.7 0.00 1.91 1.91 97 1010.1
20260510013045 6 127 1.6 12.9 0.00 1.91 1.91 97 1009.9
20260510012531 6 0 1.6 12.9 0.00 1.91 1.91 97 1010.1
20260510012031 6 100 1.6 9.7 0.00 1.91 1.91 97 1010.1
20260510011556 6 100 3.2 9.7 0.00 1.91 1.91 97 1010.2
20260510011030 6 0 1.6 6.4 0.00 1.91 1.91 97 1010.2
20260510010532 6 125 1.6 6.4 0.00 1.91 1.91 97 1010.1
20260510010045 6 116 0.0 4.8 0.00 1.91 1.91 97 1010.0
20260510005528 6 137 0.0 4.8 0.00 1.91 1.91 97 1010.0
20260510005031 6 0 0.0 6.4 0.00 1.91 1.91 97 1009.9
20260510004547 6 0 1.6 8.0 0.00 1.91 1.91 97 1009.9
20260510004032 6 124 0.0 11.3 0.00 1.91 1.91 97 1009.8
20260510003531 6 131 1.6 12.9 0.00 1.91 1.91 97 1009.8
20260510003048 6 147 6.4 12.9 0.00 1.91 1.91 97 1009.8
20260510002528 6 76 1.6 9.7 0.00 1.91 1.91 97 1009.6
20260510002031 6 101 3.2 9.7 0.00 1.91 1.91 97 1009.7
20260510001543 6 126 3.2 11.3 0.00 1.91 1.91 97 1009.6
20260510001031 6 143 3.2 11.3 0.00 1.91 1.91 97 1009.5
20260510000532 6 95 1.6 16.1 0.00 1.91 1.91 97 1009.4
20260510000048 6 78 3.2 16.1 0.00 1.91 1.91 97 1009.4
20260509235533 6 118 4.8 16.1 0.00 1.91 1.91 97 1009.4
20260509235033 6 90 3.2 12.9 0.00 1.91 1.91 97 1009.4
20260509234543 6 96 3.2 11.3 0.00 1.91 1.91 97 1009.2
20260509234031 6 65 3.2 14.5 0.00 1.91 1.91 97 1009.1
20260509233530 6 79 3.2 14.5 0.00 1.91 1.91 97 1009.2
20260509233048 6 65 6.4 14.5 0.00 1.91 1.91 96 1009.2
20260509232531 6 75 4.8 12.9 0.00 1.91 1.91 96 1009.1
20260509232031 6 108 4.8 11.3 0.00 1.91 1.91 96 1009.3
20260509231552 6 75 4.8 9.7 0.00 1.91 1.91 97 1009.1
20260509231028 6 78 3.2 11.3 0.00 1.91 1.91 97 1009.1
20260509230531 6 80 3.2 11.3 0.00 1.91 1.91 97 1009.1
20260509230045 6 103 3.2 11.3 0.00 1.91 1.91 96 1009.1
20260509225530 6 90 0.0 16.1 0.00 1.91 1.91 96 1009.2
20260509225032 6 89 3.2 16.1 0.00 1.91 1.91 96 1009.1
20260509224542 6 112 6.4 16.1 0.00 1.91 1.91 96 1009.1
20260509224030 6 96 3.2 12.9 0.00 1.91 1.91 96 1009.0
20260509223532 6 84 3.2 12.9 0.00 1.91 1.91 97 1009.1
20260509223047 6 107 3.2 9.7 0.00 1.91 1.91 96 1009.1
20260509222531 6 130 1.6 9.7 0.00 1.91 1.91 97 1009.1
20260509222028 6 74 3.2 9.7 0.00 1.91 1.91 97 1009.1
20260509221545 6 0 0.0 12.9 0.00 1.91 1.91 97 1009.0
20260509221031 5 0 3.2 14.5 0.00 1.91 1.91 96 1009.0
20260509220531 5 128 6.4 14.5 0.00 1.91 1.91 96 1009.0
20260509220044 5 145 3.2 12.9 0.00 1.91 1.91 96 1009.1
20260509215530 5 129 4.8 12.9 0.03 1.91 1.91 96 1009.1
20260509215028 5 88 3.2 11.3 0.03 1.91 1.91 96 1009.1
20260509214548 5 98 3.2 11.3 0.03 1.91 1.91 96 1009.1
20260509214028 5 115 3.2 9.7 0.03 1.91 1.91 96 1009.2
20260509213531 5 0 3.2 11.3 0.05 1.91 1.91 96 1009.4
20260509213101 5 96 3.2 12.9 0.05 1.91 1.91 96 1009.5
20260509212528 5 0 4.8 12.9 0.05 1.91 1.91 96 1009.4
20260509212028 5 113 3.2 11.3 0.08 1.91 1.91 96 1009.4
20260509211608 5 130 4.8 12.9 0.08 1.91 1.91 96 1009.5
20260509211032 5 134 4.8 14.5 0.08 1.91 1.91 96 1009.5
20260509210529 5 95 4.8 16.1 0.08 1.91 1.91 96 1009.6
20260509210044 5 121 6.4 16.1 0.10 1.91 1.91 96 1009.6
20260509205531 5 123 3.2 14.5 0.08 1.88 1.88 96 1009.6
20260509205031 5 133 3.2 14.5 0.10 1.88 1.88 96 1009.7
20260509204557 5 137 3.2 12.9 0.10 1.88 1.88 96 1009.7
20260509204032 5 112 4.8 17.7 0.13 1.88 1.88 96 1009.8
20260509203528 5 127 3.2 17.7 0.13 1.85 1.85 96 1009.8
20260509203052 5 146 1.6 14.5 0.13 1.85 1.85 96 1010.0
20260509202528 5 142 1.6 16.1 0.15 1.85 1.85 96 1010.0
20260509202028 5 201 3.2 16.1 0.13 1.83 1.83 96 1010.0
20260509201537 5 115 6.4 12.9 0.15 1.83 1.83 96 1010.0
20260509201030 5 123 3.2 14.5 0.15 1.83 1.83 96 1010.0
20260509200530 5 115 6.4 16.1 0.18 1.83 1.83 96 1010.0
20260509200046 5 117 6.4 16.1 0.18 1.80 1.80 96 1010.0
20260509195531 5 89 3.2 12.9 0.20 1.80 1.80 96 1010.0
20260509195031 5 132 4.8 12.9 0.20 1.78 1.78 96 1010.0
20260509194546 5 53 4.8 12.9 0.23 1.78 1.78 96 1010.0
20260509194030 5 0 0.0 8.0 0.23 1.75 1.75 96 1010.0
20260509193534 5 123 1.6 8.0 0.23 1.73 1.73 96 1009.9
20260509193046 5 65 1.6 11.3 0.28 1.73 1.73 96 1009.9
20260509192528 4 131 3.2 11.3 0.28 1.70 1.70 96 1010.1
20260509192030 4 0 3.2 11.3 0.30 1.70 1.70 96 1010.1
20260509191544 4 103 3.2 11.3 0.30 1.68 1.68 96 1010.1
20260509191035 4 105 6.4 11.3 0.30 1.65 1.65 95 1010.2
20260509190530 4 141 3.2 11.3 0.33 1.65 1.65 96 1010.3
20260509190049 5 136 1.6 11.3 0.36 1.63 1.63 96 1010.4
20260509185531 4 148 3.2 11.3 0.36 1.60 1.60 96 1010.4
20260509185030 4 123 3.2 12.9 0.36 1.57 1.57 96 1010.3
20260509184547 4 0 3.2 12.9 0.36 1.55 1.55 96 1010.4
20260509184028 4 124 1.6 14.5 0.36 1.52 1.52 96 1010.6
20260509183533 4 166 6.4 14.5 0.36 1.47 1.47 96 1010.7
20260509183043 4 149 4.8 11.3 0.33 1.45 1.45 96 1010.7
20260509182527 4 125 4.8 11.3 0.33 1.42 1.42 96 1010.7
20260509182030 4 140 3.2 16.1 0.33 1.40 1.40 96 1010.6
20260509181545 4 0 3.2 16.1 0.33 1.37 1.37 96 1010.7
20260509181030 4 87 6.4 16.1 0.36 1.32 1.32 96 1010.7
20260509180530 4 85 3.2 14.5 0.33 1.30 1.30 96 1010.6
20260509180055 4 126 4.8 12.9 0.33 1.27 1.27 96 1010.7
20260509175530 4 157 1.6 9.7 0.33 1.24 1.24 96 1010.7
20260509175033 4 0 3.2 9.7 0.33 1.22 1.22 96 1010.7
20260509174540 4 112 3.2 12.9 0.33 1.19 1.19 96 1010.8
20260509174032 4 123 4.8 12.9 0.33 1.17 1.17 95 1010.8
20260509173532 4 123 6.4 12.9 0.33 1.14 1.14 95 1010.8
20260509173044 4 131 3.2 9.7 0.33 1.12 1.12 95 1010.8
20260509172534 4 125 3.2 11.3 0.33 1.09 1.09 95 1010.9
20260509172033 4 94 1.6 11.3 0.33 1.07 1.07 95 1011.0
20260509171545 4 0 3.2 11.3 0.33 1.04 1.04 95 1011.0
20260509171032 4 178 3.2 12.9 0.28 0.99 0.99 95 1011.0
20260509170534 3 132 6.4 12.9 0.28 0.97 0.97 95 1010.9
20260509170046 3 125 3.2 12.9 0.28 0.94 0.94 95 1011.0
20260509165532 3 138 3.2 12.9 0.25 0.91 0.91 95 1011.0
20260509165032 4 126 3.2 11.3 0.25 0.89 0.89 95 1011.0
20260509164544 4 105 1.6 9.7 0.25 0.86 0.86 95 1011.0
20260509164031 3 0 0.0 9.7 0.25 0.84 0.84 95 1011.0
20260509163535 3 161 4.8 8.0 0.25 0.81 0.81 95 1011.1
20260509163050 3 0 3.2 9.7 0.28 0.79 0.79 95 1011.2
20260509162532 3 0 3.2 11.3 0.25 0.76 0.76 95 1011.2
20260509162032 3 118 4.8 11.3 0.25 0.74 0.74 95 1011.4
20260509161546 3 103 3.2 9.7 0.25 0.71 0.71 95 1011.3
20260509161033 3 161 3.2 12.9 0.28 0.71 0.71 95 1011.5
20260509160534 3 178 3.2 12.9 0.28 0.69 0.69 95 1011.6
20260509160051 3 0 4.8 12.9 0.28 0.66 0.66 95 1011.5
20260509155532 3 140 0.0 8.0 0.30 0.66 0.66 95 1011.6
20260509155031 3 138 4.8 9.7 0.30 0.64 0.64 95 1011.7
20260509154542 3 130 3.2 9.7 0.28 0.61 0.61 95 1011.8
20260509154035 3 159 1.6 12.9 0.28 0.58 0.58 95 1011.9
20260509153532 3 169 1.6 12.9 0.23 0.53 0.53 95 1011.9
20260509153045 3 165 3.2 11.3 0.23 0.51 0.51 95 1012.1
20260509152529 3 90 1.6 16.1 0.20 0.48 0.48 95 1012.0
20260509152029 3 96 3.2 16.1 0.23 0.48 0.48 95 1012.0
20260509151544 3 166 4.8 11.3 0.20 0.46 0.46 95 1012.1
20260509151032 3 131 1.6 9.7 0.20 0.43 0.43 95 1012.0
20260509150533 3 120 3.2 11.3 0.18 0.41 0.41 95 1012.1